Home   Weather   Enns   Past weeks

Flag for Austria Past Weather in Enns, Upper Austria, Austria — Yesterday and Last 2 Weeks

43 °F

Low clouds.

Feels Like: N/A
Forecast: 36 / 62 °F
Wind: N/A

Location: Linz / Hoersching-Flughafen

Current Time: Oct 24, 2016 at 1:55:56 AM

Latest Report: Oct 24, 2016 at 1:00 AM

Visibility: 4 mi

Pressure: 30.03 "Hg

Humidity: 94%

Dew Point: 42 °F

Location of EnnsLocation

Past Weather in Enns — Graph


Enns Temperature Yesterday

Maximum temperature yesterday: 45 °F (at 4:00 PM)
Minimum temperature yesterday: 32 °F (at 6:00 AM)
Average temperature yesterday: 38 °F

High & Low Weather Summary for the Past Weeks

High66 °F (Oct 16, 4:00 PM)100% (Oct 19, 7:00 AM)30.32 "Hg (Oct 19, 7:00 AM)
Low32 °F (Oct 23, 6:00 AM)54% (Oct 9, 4:00 PM)29.75 "Hg (Oct 15, 6:00 AM)
Average47 °F88%30.08 "Hg
* Reported Oct 9 12:00 AM — Oct 24 12:00 AM, Enns, Weather by CustomWeather, © 2016

Note: Actual official high and low records may vary slightly from our data, if they occured in-between our weather recording intervals... More about our weather records


Enns Weather History for the Previous 24 Hours

Scroll right to see more
Time TempWeatherWind HumidityBarometerVisibility
12:00 AM
Mon, Oct 24
43 °FLow clouds.3 mph93%30.03 "Hg4 mi
11:00 PM
Sun, Oct 23
N/APassing clouds.15 mphN/AN/A2 mi
10:00 PM42 °FLow clouds.N/A94%30.03 "Hg4 mi
9:00 PM42 °FLow clouds.N/A92%30.01 "Hg4 mi
8:00 PM42 °FLow clouds.5 mph91%29.99 "Hg5 mi
7:00 PM42 °FLow clouds.5 mph91%30.00 "Hg6 mi
6:00 PM44 °FOvercast.6 mph87%29.99 "Hg7 mi
5:00 PM44 °FLow clouds.6 mph87%29.98 "Hg9 mi
4:00 PM45 °FLow clouds.6 mph86%29.98 "Hg8 mi
3:00 PM43 °FLow clouds.5 mph87%29.99 "Hg9 mi
2:00 PM42 °FLow clouds.5 mph93%30.00 "Hg5 mi
1:00 PM41 °FLow clouds.5 mph96%30.01 "Hg3 mi
12:00 PM40 °FLow clouds.5 mph98%30.03 "Hg2 mi
11:00 AM38 °FLow clouds.5 mph100%30.04 "Hg1 mi
10:00 AM37 °FLight snow. Low clouds.5 mph100%30.05 "Hg1 mi
9:00 AM34 °FLight snow. Low clouds.N/A100%30.05 "Hg1 mi
8:00 AM34 °FLight snow. Dense fog.N/A100%30.04 "Hg0 mi
7:00 AM33 °FLight snow. Dense fog.N/A100%30.03 "Hg0 mi
6:00 AM32 °FLight snow. Ice fog.N/A100%30.04 "Hg1 mi
5:00 AM32 °FLight snow. Dense fog.No wind100%30.04 "Hg0 mi
4:00 AM33 °FLight snow. Dense fog.N/A100%30.04 "Hg0 mi
3:00 AM33 °FLight rain. Passing clouds.N/A100%30.05 "Hg0 mi
2:00 AM34 °FLight rain. Passing clouds.N/A99%30.06 "Hg1 mi
1:00 AM35 °FChilly.N/A97%30.05 "Hg3 mi
Weather by CustomWeather, © 2016

See weather overviewHow to use our weather pages